Weather History for KREO - July, 2013

Change the Weather History Date:

Wednesday, July 10, 2013

  Actual Average Record
Temperature  
Mean Temperature 79 °F 71 °F  
Max Temperature 97 °F 91 °F 105 °F (2002)
Min Temperature 61 °F 51 °F 48 °F (1977)
Degree Days  
Heating Degree Days 0 1  
Month to date heating degree days 0 10  
Since 1 June heating degree days 94 135  
Since 1 July heating degree days 0 10  
Cooling Degree Days 14 7  
Month to date cooling degree days 135 57  
Year to date cooling degree days 293 129  
Since 1 June cooling degree days 271 119  
Growing Degree Days 28 (Base 50)    
Moisture  
Dew Point 27 °F    
Average Humidity 21    
Maximum Humidity 35    
Minimum Humidity 6    
Precipitation  
Precipitation 0.00 in 0.01 in 0.16 in (1974)
Month to date precipitation 0.41 0.11  
Year to date precipitation 3.03 5.73  
Sea Level Pressure  
Sea Level Pressure 29.86 in    
Wind  
Wind Speed 12 mph (SSW)    
Max Wind Speed 28 mph    
Max Gust Speed 39 mph    
T = Trace of Precipitation, MM = Missing Value Source: NWS Daily Summary

Daily Weather History Graph

Daily Weather History Graph

Search for Another Location

Airport or City:

Trip Planner

Search our weather history database for the weather conditions in past years. The results will help you decide how hot, cold, wet, or windy it might be!

Date:

Astronomy

Jul. 10, 2013 Rise Set
Actual Time 5:23 AM PDT 8:29 PM PDT
Civil Twilight 4:49 AM PDT 9:03 PM PDT
Nautical Twilight 4:05 AM PDT 9:47 PM PDT
Astronomical Twilight 3:13 AM PDT 10:39 PM PDT
Moon 7:53 AM PDT (7/10) 9:37 PM PDT (7/10)
Length of Visible Light 16h 14m
Length of Day
15h 06m
Waxing Crescent, 6% of the Moon is Illuminated
Jul 10
Waxing Crescent
Jul 15
First Quarter
Jul 22
Full
Jul 29
Last Quarter
Aug 6
New

Hourly Weather History & Observations

Time (PDT) Temp. Dew Point Humidity Pressure Visibility Wind Dir Wind Speed Gust Speed Precip Events Conditions
12:52 AM 66.0 °F 32.0 °F 28% 29.93 in - SSW 8.1 mph - N/A   Unknown
1:52 AM 66.0 °F 30.9 °F 27% 29.92 in - SSE 8.1 mph - N/A   Unknown
2:52 AM 64.9 °F 32.0 °F 29% 29.92 in - SSW 11.5 mph - N/A   Unknown
3:52 AM 64.9 °F 34.0 °F 32% 29.92 in - South 10.4 mph - N/A   Unknown
4:52 AM 64.9 °F 34.0 °F 32% 29.92 in - South 8.1 mph - N/A   Unknown
5:52 AM 61.0 °F 32.0 °F 34% 29.93 in - Calm Calm - N/A   Unknown
6:52 AM 75.9 °F 30.9 °F 19% 29.91 in - SSW 12.7 mph - N/A   Unknown
7:52 AM 81.0 °F 30.0 °F 16% 29.91 in - SW 16.1 mph 21.9 mph N/A   Unknown
8:52 AM 84.9 °F 30.9 °F 14% 29.93 in - SSW 13.8 mph 21.9 mph N/A   Unknown
9:52 AM 87.1 °F 30.9 °F 13% 29.91 in - SW 15.0 mph 21.9 mph N/A   Unknown
10:52 AM 90.0 °F 30.0 °F 12% 29.91 in - SW 11.5 mph 23.0 mph N/A   Unknown
11:52 AM 91.9 °F 30.0 °F 11% 29.91 in - SSW 10.4 mph 26.5 mph N/A   Unknown
12:52 PM 93.0 °F 30.0 °F 11% 29.88 in - Variable 5.8 mph 19.6 mph N/A   Unknown
1:52 PM 93.9 °F 30.0 °F 10% 29.86 in - WSW 10.4 mph 27.6 mph N/A   Unknown
2:52 PM 96.1 °F 26.1 °F 8% 29.83 in - SW 19.6 mph 28.8 mph N/A   Unknown
3:52 PM 96.1 °F 25.0 °F 8% 29.81 in - SSW 19.6 mph 26.5 mph N/A   Unknown
4:52 PM 95.0 °F 21.0 °F 7% 29.78 in - SW 8.1 mph 34.5 mph N/A   Unknown
5:52 PM 93.9 °F 18.0 °F 6% 29.78 in - SW 12.7 mph 25.3 mph N/A   Unknown
6:52 PM 93.0 °F 17.1 °F 6% 29.75 in - SW 17.3 mph 23.0 mph N/A   Unknown
7:52 PM 90.0 °F 17.1 °F 7% 29.75 in - SSW 13.8 mph - N/A   Unknown
8:52 PM 82.9 °F 21.0 °F 10% 29.76 in - South 12.7 mph - N/A   Unknown
9:52 PM 79.0 °F 25.0 °F 14% 29.78 in - WSW 4.6 mph - N/A   Unknown
10:52 PM 78.1 °F 23.0 °F 13% 29.78 in - SSW 12.7 mph - N/A   Unknown
11:52 PM 79.0 °F 21.0 °F 12% 29.78 in - South 18.4 mph 25.3 mph N/A   Unknown